Danville, VA

12:35 AM EST on January 21, 2018 (GMT -0500)
Danville Regional

Weather History for KDAN - September, 2014

Change the Weather History Date:

Tuesday, September 30, 2014

  Actual Average Record
Temperature  
Mean Temperature 71 °F 65 °F  
Max Temperature 80 °F 75 °F 92 °F (1954)
Min Temperature 61 °F 55 °F 34 °F (1951)
Degree Days  
Heating Degree Days 0 3  
Month to date heating degree days 12 27  
Since 1 July heating degree days 12 28  
Cooling Degree Days 6 3  
Month to date cooling degree days 196 176  
Year to date cooling degree days 1385 1403  
Growing Degree Days 20 (Base 50)    
Moisture  
Dew Point 62 °F    
Average Humidity 81    
Maximum Humidity 100    
Minimum Humidity 62    
Precipitation  
Precipitation 0.00 in 0.13 in 2.29 in (1959)
Month to date precipitation 3.88 3.96  
Year to date precipitation 33.63 34.25  
Snow  
Snow 0.00 in - - ()
Month to date snowfall 0.0  
Since 1 July snowfall 0.0  
Since 1 September snowfall 0.0  
Snow Depth 0.00 in    
Sea Level Pressure  
Sea Level Pressure 29.92 in    
Wind  
Wind Speed 2 mph (WSW)    
Max Wind Speed 9 mph    
Max Gust Speed 11 mph    
Visibility 4 miles    
Events Fog    
T = Trace of Precipitation, MM = Missing Value Source: NWS Daily Summary

Daily Weather History Graph

Daily Weather History Graph

Search for Another Location

Airport or City:

Trip Planner

Search our weather history database for the weather conditions in past years. The results will help you decide how hot, cold, wet, or windy it might be!

Date:

Astronomy

Sep. 30, 2014 Rise Set
Actual Time 7:11 AM EDT 7:02 PM EDT
Civil Twilight 6:45 AM EDT 7:28 PM EDT
Nautical Twilight 6:16 AM EDT 7:57 PM EDT
Astronomical Twilight 5:45 AM EDT 8:28 PM EDT
Moon 1:10 PM EDT (9/30) 11:38 PM EDT (9/30)
Length of Visible Light 12h 42m
Length of Day
11h 50m
Waxing Crescent, 38% of the Moon is Illuminated
Sep 30
Waxing Crescent
Oct 1
First Quarter
Oct 8
Full
Oct 15
Last Quarter
Oct 23
New

Hourly Weather History & Observations

Time (EDT) Temp. Dew Point Humidity Pressure Visibility Wind Dir Wind Speed Gust Speed Precip Events Conditions
12:04 AM 62.1 °F 60.1 °F 93% 29.97 in 1.2 mi SW 3.5 mph - N/A   Partly Cloudy
12:07 AM 62.1 °F 60.1 °F 93% 29.97 in 0.8 mi Calm Calm - N/A   Mist
12:24 AM 62.1 °F 60.1 °F 93% 29.97 in 0.2 mi SSW 3.5 mph - N/A Fog Fog
12:40 AM 62.1 °F 60.1 °F 93% 29.96 in 0.5 mi Calm Calm - N/A Fog Fog
12:53 AM 62.1 °F 60.1 °F 93% 29.94 in 1.2 mi SSW 3.5 mph - N/A   Overcast
1:00 AM 62.1 °F 60.1 °F 93% 29.96 in 0.5 mi Calm Calm - N/A Fog Fog
1:09 AM 62.1 °F 60.1 °F 93% 29.96 in 0.2 mi Calm Calm - N/A Fog Fog
1:20 AM 61.0 °F 59.0 °F 93% 29.96 in 0.2 mi WSW 3.5 mph - N/A Fog Fog
1:53 AM 61.0 °F 60.1 °F 97% 29.94 in 0.2 mi Calm Calm - N/A Fog Fog
2:11 AM 62.1 °F 61.0 °F 96% 29.96 in 0.2 mi Calm Calm - N/A Fog Fog
2:25 AM 62.1 °F 60.1 °F 93% 29.95 in 0.5 mi Calm Calm - N/A Fog Fog
2:36 AM 62.1 °F 61.0 °F 96% 29.95 in 1.8 mi Calm Calm - N/A   Overcast
2:48 AM 62.6 °F 60.8 °F 94% 29.95 in 0.8 mi SW 4.6 mph - N/A   Mist
2:53 AM 62.1 °F 60.1 °F 93% 29.92 in 0.8 mi SW 3.5 mph - N/A   Mist
3:07 AM 63.0 °F 61.0 °F 93% 29.94 in 1.2 mi SW 3.5 mph - N/A   Overcast
3:20 AM 63.0 °F 61.0 °F 93% 29.94 in 2.0 mi WSW 8.1 mph - N/A   Overcast
3:37 AM 63.0 °F 62.1 °F 97% 29.93 in 1.5 mi WSW 9.2 mph - N/A   Overcast
3:53 AM 63.0 °F 62.1 °F 97% 29.90 in 1.5 mi SW 8.1 mph - N/A   Overcast
4:04 AM 63.0 °F 62.1 °F 97% 29.93 in 2.5 mi WSW 5.8 mph - N/A   Overcast
4:34 AM 63.0 °F 62.1 °F 97% 29.92 in 4.0 mi West 6.9 mph - N/A   Overcast
4:53 AM 63.0 °F 62.1 °F 97% 29.90 in 3.0 mi West 5.8 mph - N/A   Overcast
5:05 AM 63.0 °F 62.1 °F 97% 29.92 in 2.0 mi West 4.6 mph - N/A   Overcast
5:22 AM 63.0 °F 62.1 °F 97% 29.93 in 1.8 mi West 4.6 mph - N/A   Overcast
5:27 AM 63.0 °F 62.1 °F 97% 29.92 in 3.0 mi West 6.9 mph - N/A   Overcast
5:48 AM 62.6 °F 62.6 °F 100% 29.92 in 2.0 mi West 4.6 mph - N/A   Overcast
5:53 AM 63.0 °F 62.1 °F 97% 29.90 in 2.5 mi WNW 3.5 mph - N/A   Overcast
6:01 AM 63.0 °F 61.0 °F 93% 29.92 in 4.0 mi NW 5.8 mph - N/A   Overcast
6:53 AM 63.0 °F 61.0 °F 93% 29.91 in 5.0 mi West 3.5 mph - N/A   Overcast
7:53 AM 63.0 °F 61.0 °F 93% 29.92 in 6.0 mi WNW 3.5 mph - N/A   Overcast
8:51 AM 64.4 °F 60.8 °F 88% 29.95 in 10.0 mi Calm Calm - N/A   Overcast
8:53 AM 64.0 °F 61.0 °F 90% 29.93 in 10.0 mi Calm Calm - N/A   Overcast
9:53 AM 64.9 °F 61.0 °F 87% 29.93 in 10.0 mi Calm Calm - N/A   Overcast
10:53 AM 66.9 °F 61.0 °F 81% 29.92 in 10.0 mi Calm Calm - N/A   Overcast
11:24 AM 70.0 °F 62.1 °F 76% 29.95 in 10.0 mi NNW 3.5 mph - N/A   Mostly Cloudy
11:53 AM 72.0 °F 63.0 °F 73% 29.91 in 10.0 mi Calm Calm - N/A   Mostly Cloudy
12:02 PM 71.1 °F 62.1 °F 73% 29.93 in 10.0 mi SSW 3.5 mph - N/A   Scattered Clouds
12:53 PM 73.0 °F 63.0 °F 71% 29.90 in 10.0 mi Calm Calm - N/A   Clear
1:53 PM 77.0 °F 64.0 °F 64% 29.87 in 10.0 mi North 3.5 mph - N/A   Clear
2:53 PM 79.0 °F 64.0 °F 60% 29.85 in 10.0 mi Variable 3.5 mph - N/A   Partly Cloudy
3:53 PM 79.0 °F 64.0 °F 60% 29.84 in 10.0 mi Calm Calm - N/A   Clear
4:53 PM 79.0 °F 64.0 °F 60% 29.84 in 10.0 mi East 4.6 mph - N/A   Clear
5:53 PM 77.0 °F 64.0 °F 64% 29.84 in 10.0 mi Variable 3.5 mph - N/A   Clear
6:53 PM 73.0 °F 64.9 °F 76% 29.86 in 10.0 mi Variable 3.5 mph - N/A   Clear
7:53 PM 69.1 °F 64.9 °F 87% 29.87 in 10.0 mi East 3.5 mph - N/A   Clear
8:53 PM 66.9 °F 64.0 °F 90% 29.88 in 10.0 mi East 3.5 mph - N/A   Clear
9:46 PM 64.0 °F 61.0 °F 90% 29.92 in 1.8 mi Calm Calm - N/A   Clear
9:53 PM 64.9 °F 63.0 °F 93% 29.96 in 5.0 mi Calm Calm - N/A   Scattered Clouds
9:57 PM 63.0 °F 60.1 °F 90% 29.92 in 3.0 mi Calm Calm - N/A   Clear
10:01 PM 63.0 °F 61.0 °F 93% 29.92 in 1.5 mi Calm Calm - N/A   Clear
10:12 PM 63.0 °F 61.0 °F 93% 29.92 in 4.0 mi East 3.5 mph - N/A   Clear
10:39 PM 64.9 °F 63.0 °F 93% 29.98 in 4.0 mi SW 3.5 mph - N/A   Partly Cloudy
10:53 PM 63.0 °F 61.0 °F 93% 29.91 in 2.5 mi Calm Calm - N/A   Clear
11:04 PM 63.0 °F 60.1 °F 90% 29.93 in 1.2 mi Calm Calm - N/A   Clear
11:11 PM 63.0 °F 60.1 °F 90% 29.93 in 4.0 mi Calm Calm - N/A   Clear
11:20 PM 62.1 °F 60.1 °F 93% 29.93 in 7.0 mi ENE 3.5 mph - N/A   Scattered Clouds
11:27 PM 62.1 °F 60.1 °F 93% 29.94 in 2.0 mi ENE 3.5 mph - N/A   Mostly Cloudy
11:30 PM 62.1 °F 60.1 °F 93% 29.94 in 0.8 mi Calm Calm - N/A   Mist
11:43 PM 63.0 °F 61.0 °F 93% 29.94 in 0.5 mi ENE 3.5 mph - N/A Fog Fog
11:53 PM 64.0 °F 62.1 °F 93% 29.92 in 0.2 mi ENE 4.6 mph - N/A Fog Fog